Regional Weather Roundup
Issued by NWS State College, PA

Home | Current Version | Previous Version | Graphics & Text | Print | Product List | Glossary On
Versions: 1 2 3 4 5 6 7 8 9 10 11 12 13 14 15 16 17 18 19 20 21 22 23 24 25 26 27 28 29 30 31 32 33 34 35 36 37 38 39 40 41 42 43 44 45 46 47 48 49 50
000
ASUS41 KCTP 161303
RWRCTP

REGIONAL WEATHER ROUNDUP
NATIONAL WEATHER SERVICE STATE COLLEGE PA
800 AM EST MON JAN 16 2017

Note: "fair" indicates few or no clouds below 12,000 feet with no
significant weather and/or obstructions to visibility.

* = STATION THAT DOES NOT REPORT PRECIPITATION /E.G. RAIN...SNOW...ETC/
    THUNDER OR FOG.

PAZ002>004-007>009-013>016-020>023-029>032-161400-
WESTERN PENNSYLVANIA

CITY           SKY/WX    TMP DP  RH WIND       PRES   REMARKS
ERIE           PTCLDY    25  18  74 S7        30.36S
MEADVILLE      CLOUDY    23  17  78 E3        30.32F
FRANKLIN*        N/A     18  12  79 CALM      30.34S
NEW CASTLE     CLOUDY    20  19  96 CALM      30.35F
BEAVER COUNTY  NOT AVBL
BUTLER*        CLOUDY    21  18  86 NE3       30.35S
PITTSBURGH INT CLOUDY    25  23  92 CALM      30.33S
PITTSBURGH     CLOUDY    27  19  72 NE3       30.31F
INDIANA*       CLEAR     21  19  93 E3        30.36F
LATROBE        MOCLDY    25  23  93 N6        30.34F
WASHINGTON CO* CLOUDY    27  25  93 CALM      30.33S
$$

PAZ004>006-010>012-017>019-024>028-033>037-041-042-045-046-049>053-161400-
CENTRAL PENNSYLVANIA

CITY           SKY/WX    TMP DP  RH WIND       PRES   REMARKS
BRADFORD       CLOUDY    12   9  87 CALM      30.31S
DUBOIS         CLOUDY    18  12  77 SE3       30.32S
CLEARFIELD     CLOUDY    15  12  88 CALM      30.36S
JOHNSTOWN      CLOUDY    30  26  85 S6        30.29F
ALTOONA        PTCLDY    24  19  81 CALM      30.37R
STATE COLLEGE  CLEAR     16  16 100 CALM      30.38F
WILLIAMSPORT   CLOUDY    18  14  84 CALM      30.45R
SELINSGROVE    FOG       16  16 100 CALM      30.46S VSB 1/2
FT INDIANTOWN  CLOUDY    16  16 100 CALM      30.45S
CAPITAL CITY   CLOUDY    22  17  81 CALM      30.46S
HARRISBURG     CLOUDY    22  21  96 CALM      30.46S FOG
YORK           MOCLDY    19  18  95 CALM      30.45S FOG
$$

PAZ038>040-043-044-047-048-054-055-060>062-067>071-161400-
EASTERN PENNSYLVANIA

CITY           SKY/WX    TMP DP  RH WIND       PRES   REMARKS
SCRANTON       CLOUDY    13  11  92 CALM      30.41R
MOUNT POCONO   CLOUDY    11   7  84 CALM      30.34R
ALLENTOWN      CLOUDY    15  13  91 CALM      30.45S FOG
QUAKERTOWN*    CLOUDY    16  14  93 CALM      30.45S
READING        CLOUDY    18  14  84 CALM      30.46S
LANCASTER      CLOUDY    22  19  89 CALM      30.46S FOG
COATESVILLE    CLOUDY    23  18  80 CALM      30.45S
POTTSTOWN      CLOUDY    18  15  88 CALM      30.48R FOG
BLUE BELL      CLOUDY    21  21 100 CALM      30.46S
DOYLESTOWN     CLOUDY    22  18  85 CALM      30.45R
WILLOW GROVE   NOT AVBL
NORTH PHILA    CLOUDY    26  18  71 W3        30.49R
PHILADELPHIA   CLOUDY    27  19  72 NW3       30.49R
$$



USA.gov is the U.S. government's official web portal to all federal, state and local government web resources and services.